Time,TemperatureF,DewpointF,PressureIn,WindDirection,WindDirectionDegrees,WindSpeedMPH,WindSpeedGustMPH,Humidity,HourlyPrecipIn,Conditions,Clouds,dailyrainin,SoftwareType,DateUTC
2013-03-02 00:09:00,54.0,40.0,29.82,West,270,5.8,-999.0,59,-99.99,,,0.00,Acu-Link.com,2013-03-02 05:09:00,
2013-03-02 00:25:00,53.6,40.1,29.82,North,0,4.2,-999.0,60,-99.99,,,0.00,Acu-Link.com,2013-03-02 05:25:00,
2013-03-02 00:40:00,53.6,40.5,29.83,WNW,292,3.7,-999.0,61,-99.99,,,0.00,Acu-Link.com,2013-03-02 05:40:00,
2013-03-02 00:55:00,53.4,41.1,29.83,SW,225,2.7,-999.0,63,-99.99,,,0.00,Acu-Link.com,2013-03-02 05:55:00,
2013-03-02 01:11:00,53.2,41.3,29.83,West,270,5.3,-999.0,64,-99.99,,,0.00,Acu-Link.com,2013-03-02 06:11:00,
2013-03-02 01:26:00,53.1,41.6,29.83,West,270,2.2,-999.0,65,-99.99,,,0.00,Acu-Link.com,2013-03-02 06:26:00,
2013-03-02 01:41:00,52.9,42.2,29.82,West,270,4.2,-999.0,67,-99.99,,,0.00,Acu-Link.com,2013-03-02 06:41:00,
2013-03-02 01:56:00,52.7,42.1,29.82,South,180,1.1,-999.0,67,-99.99,,,0.00,Acu-Link.com,2013-03-02 06:56:00,
2013-03-02 02:11:00,52.3,40.9,29.82,SSE,157,2.2,-999.0,65,-99.99,,,0.00,Acu-Link.com,2013-03-02 07:11:00,
2013-03-02 02:27:00,52.0,38.6,29.83,WNW,292,5.8,-999.0,60,-99.99,,,0.00,Acu-Link.com,2013-03-02 07:27:00,
2013-03-02 02:42:00,51.8,37.9,29.82,NW,315,2.7,-999.0,59,-99.99,,,0.00,Acu-Link.com,2013-03-02 07:42:00,
2013-03-02 02:57:00,51.6,37.7,29.82,WSW,247,3.7,-999.0,59,-99.99,,,0.00,Acu-Link.com,2013-03-02 07:57:00,
2013-03-02 03:12:00,51.3,37.5,29.82,NNW,337,3.7,-999.0,59,-99.99,,,0.00,Acu-Link.com,2013-03-02 08:12:00,
2013-03-02 03:28:00,51.1,37.7,29.83,NW,315,5.8,-999.0,60,-99.99,,,0.00,Acu-Link.com,2013-03-02 08:28:00,
2013-03-02 03:43:00,50.9,37.5,29.82,SW,225,3.7,-999.0,60,-99.99,,,0.00,Acu-Link.com,2013-03-02 08:43:00,
2013-03-02 03:58:00,50.5,37.6,29.84,West,270,6.3,-999.0,61,-99.99,,,0.00,Acu-Link.com,2013-03-02 08:58:00,
2013-03-02 04:18:00,50.5,37.6,29.83,NNE,22,1.7,-999.0,61,-99.99,,,0.00,Acu-Link.com,2013-03-02 09:18:00,
2013-03-02 04:33:00,50.0,37.1,29.83,SSW,202,2.7,-999.0,61,-99.99,,,0.00,Acu-Link.com,2013-03-02 09:33:00,
2013-03-02 04:48:00,49.8,36.9,29.84,NW,315,4.7,-999.0,61,-99.99,,,0.00,Acu-Link.com,2013-03-02 09:48:00,
2013-03-02 05:04:00,49.5,37.0,29.84,NNW,337,4.2,-999.0,62,-99.99,,,0.00,Acu-Link.com,2013-03-02 10:04:00,
2013-03-02 05:19:00,49.1,36.2,29.85,West,270,2.2,-999.0,61,-99.99,,,0.00,Acu-Link.com,2013-03-02 10:19:00,
2013-03-02 05:34:00,48.9,36.1,29.85,West,270,3.7,-999.0,61,-99.99,,,0.00,Acu-Link.com,2013-03-02 10:34:00,
2013-03-02 05:49:00,48.4,36.0,29.86,WSW,247,4.2,-999.0,62,-99.99,,,0.00,Acu-Link.com,2013-03-02 10:49:00,
2013-03-02 06:05:00,48.0,36.4,29.85,NNW,337,2.7,-999.0,64,-99.99,,,0.00,Acu-Link.com,2013-03-02 11:05:00,
2013-03-02 06:20:00,47.7,36.1,29.87,WNW,292,1.7,-999.0,64,-99.99,,,0.00,Acu-Link.com,2013-03-02 11:20:00,
2013-03-02 06:35:00,47.3,36.5,29.85,SW,225,1.1,-999.0,66,-99.99,,,0.00,Acu-Link.com,2013-03-02 11:35:00,
2013-03-02 06:51:00,47.1,36.3,29.85,SSW,202,0.0,-999.0,66,-99.99,,,0.00,Acu-Link.com,2013-03-02 11:51:00,
2013-03-02 07:06:00,46.0,36.0,29.87,WSW,247,0.0,-999.0,68,-99.99,,,0.00,Acu-Link.com,2013-03-02 12:06:00,
2013-03-02 07:21:00,45.7,36.5,29.85,SE,135,0.0,-999.0,70,-99.99,,,0.00,Acu-Link.com,2013-03-02 12:21:00,
2013-03-02 07:36:00,46.4,36.8,29.86,West,270,0.0,-999.0,69,-99.99,,,0.00,Acu-Link.com,2013-03-02 12:36:00,
2013-03-02 07:51:00,47.8,37.4,29.86,WNW,292,0.0,-999.0,67,-99.99,,,0.00,Acu-Link.com,2013-03-02 12:51:00,
2013-03-02 08:07:00,49.1,37.5,29.87,West,270,2.7,-999.0,64,-99.99,,,0.00,Acu-Link.com,2013-03-02 13:07:00,
2013-03-02 08:22:00,49.8,36.9,29.87,West,270,2.2,-999.0,61,-99.99,,,0.00,Acu-Link.com,2013-03-02 13:22:00,
2013-03-02 08:37:00,50.4,36.2,29.87,NW,315,1.7,-999.0,58,-99.99,,,0.00,Acu-Link.com,2013-03-02 13:37:00,
2013-03-02 08:53:00,50.5,35.4,29.88,SW,225,2.7,-999.0,56,-99.99,,,0.00,Acu-Link.com,2013-03-02 13:53:00,
2013-03-02 09:08:00,51.6,35.5,29.88,WSW,247,3.7,-999.0,54,-99.99,,,0.00,Acu-Link.com,2013-03-02 14:08:00,
2013-03-02 09:23:00,53.6,34.9,29.87,West,270,3.2,-999.0,49,-99.99,,,0.00,Acu-Link.com,2013-03-02 14:23:00,
2013-03-02 09:38:00,58.1,35.1,29.86,SSW,202,1.1,-999.0,42,-99.99,,,0.00,Acu-Link.com,2013-03-02 14:38:00,
2013-03-02 09:54:00,56.8,35.7,29.86,SW,225,2.2,-999.0,45,-99.99,,,0.00,Acu-Link.com,2013-03-02 14:54:00,
2013-03-02 10:09:00,59.2,36.1,29.87,WNW,292,3.2,-999.0,42,-99.99,,,0.00,Acu-Link.com,2013-03-02 15:09:00,
2013-03-02 10:24:00,58.8,36.4,29.87,ESE,112,0.0,-999.0,43,-99.99,,,0.00,Acu-Link.com,2013-03-02 15:24:00,
2013-03-02 10:39:00,57.9,35.5,29.87,WNW,292,2.2,-999.0,43,-99.99,,,0.00,Acu-Link.com,2013-03-02 15:39:00,
2013-03-02 10:55:00,57.6,35.3,29.87,WSW,247,4.7,-999.0,43,-99.99,,,0.00,Acu-Link.com,2013-03-02 15:55:00,
2013-03-02 11:10:00,59.2,35.5,29.86,WNW,292,4.2,-999.0,41,-99.99,,,0.00,Acu-Link.com,2013-03-02 16:10:00,
2013-03-02 11:25:00,58.6,35.6,29.87,WNW,292,1.7,-999.0,42,-99.99,,,0.00,Acu-Link.com,2013-03-02 16:25:00,
2013-03-02 11:41:00,58.8,36.9,29.87,WNW,292,2.2,-999.0,44,-99.99,,,0.00,Acu-Link.com,2013-03-02 16:41:00,
2013-03-02 11:56:00,57.7,36.5,29.87,WNW,292,5.8,-999.0,45,-99.99,,,0.00,Acu-Link.com,2013-03-02 16:56:00,
2013-03-02 12:11:00,58.1,36.3,29.85,South,180,0.0,-999.0,44,-99.99,,,0.00,Acu-Link.com,2013-03-02 17:11:00,
2013-03-02 12:27:00,58.6,36.2,29.84,West,270,0.0,-999.0,43,-99.99,,,0.00,Acu-Link.com,2013-03-02 17:27:00,
2013-03-02 12:42:00,59.0,37.7,29.84,West,270,6.8,-999.0,45,-99.99,,,0.00,Acu-Link.com,2013-03-02 17:42:00,
2013-03-02 12:57:00,58.3,37.6,29.84,West,270,3.2,-999.0,46,-99.99,,,0.00,Acu-Link.com,2013-03-02 17:57:00,
2013-03-02 13:12:00,58.5,38.9,29.84,SSW,202,2.2,-999.0,48,-99.99,,,0.00,Acu-Link.com,2013-03-02 18:12:00,
2013-03-02 13:28:00,58.6,39.5,29.82,West,270,6.3,-999.0,49,-99.99,,,0.00,Acu-Link.com,2013-03-02 18:28:00,
2013-03-02 13:43:00,57.6,39.1,29.82,West,270,5.8,-999.0,50,-99.99,,,0.00,Acu-Link.com,2013-03-02 18:43:00,
2013-03-02 13:58:00,59.7,40.0,29.81,WNW,292,4.7,-999.0,48,-99.99,,,0.00,Acu-Link.com,2013-03-02 18:58:00,
2013-03-02 14:13:00,62.2,40.0,29.79,WNW,292,5.3,-999.0,44,-99.99,,,0.00,Acu-Link.com,2013-03-02 19:13:00,
2013-03-02 14:28:00,61.2,37.3,29.81,WSW,247,6.8,-999.0,41,-99.99,,,0.00,Acu-Link.com,2013-03-02 19:28:00,
2013-03-02 14:44:00,58.8,36.4,29.80,SW,225,6.8,-999.0,43,-99.99,,,0.00,Acu-Link.com,2013-03-02 19:44:00,
2013-03-02 14:59:00,59.4,35.1,29.79,SSW,202,5.8,-999.0,40,-99.99,,,0.00,Acu-Link.com,2013-03-02 19:59:00,
2013-03-02 15:14:00,60.4,35.3,29.79,West,270,4.7,-999.0,39,-99.99,,,0.00,Acu-Link.com,2013-03-02 20:14:00,
2013-03-02 15:29:00,61.0,33.2,29.79,South,180,3.2,-999.0,35,-99.99,,,0.00,Acu-Link.com,2013-03-02 20:29:00,
2013-03-02 15:45:00,61.2,32.6,29.78,West,270,3.7,-999.0,34,-99.99,,,0.00,Acu-Link.com,2013-03-02 20:45:00,
2013-03-02 16:00:00,59.2,31.6,29.78,South,180,6.3,-999.0,35,-99.99,,,0.00,Acu-Link.com,2013-03-02 21:00:00,
2013-03-02 16:15:00,58.3,30.1,29.79,North,0,3.7,-999.0,34,-99.99,,,0.00,Acu-Link.com,2013-03-02 21:15:00,
2013-03-02 16:31:00,58.6,31.0,29.78,WNW,292,5.3,-999.0,35,-99.99,,,0.00,Acu-Link.com,2013-03-02 21:31:00,
2013-03-02 16:46:00,59.7,31.3,29.79,WSW,247,5.8,-999.0,34,-99.99,,,0.00,Acu-Link.com,2013-03-02 21:46:00,
2013-03-02 17:01:00,58.5,28.8,29.79,NNW,337,6.3,-999.0,32,-99.99,,,0.00,Acu-Link.com,2013-03-02 22:01:00,
2013-03-02 17:16:00,58.5,30.2,29.80,West,270,3.7,-999.0,34,-99.99,,,0.00,Acu-Link.com,2013-03-02 22:16:00,
2013-03-02 17:31:00,58.6,31.0,29.79,West,270,3.7,-999.0,35,-99.99,,,0.00,Acu-Link.com,2013-03-02 22:31:00,
2013-03-02 17:47:00,57.0,30.3,29.80,SW,225,2.7,-999.0,36,-99.99,,,0.00,Acu-Link.com,2013-03-02 22:47:00,
2013-03-02 18:02:00,55.4,30.2,29.81,West,270,3.7,-999.0,38,-99.99,,,0.00,Acu-Link.com,2013-03-02 23:02:00,
2013-03-02 18:17:00,54.1,29.7,29.81,NE,45,2.7,-999.0,39,-99.99,,,0.00,Acu-Link.com,2013-03-02 23:17:00,
2013-03-02 18:32:00,53.2,30.7,29.82,NNE,22,2.7,-999.0,42,-99.99,,,0.00,Acu-Link.com,2013-03-02 23:32:00,
2013-03-02 18:47:00,52.2,31.0,29.83,West,270,3.2,-999.0,44,-99.99,,,0.00,Acu-Link.com,2013-03-02 23:47:00,
2013-03-02 19:03:00,51.6,31.5,29.83,WNW,292,3.7,-999.0,46,-99.99,,,0.00,Acu-Link.com,2013-03-03 00:03:00,
2013-03-02 19:18:00,51.1,32.6,29.84,West,270,2.2,-999.0,49,-99.99,,,0.00,Acu-Link.com,2013-03-03 00:18:00,
2013-03-02 19:33:00,50.4,33.0,29.84,SSW,202,2.2,-999.0,51,-99.99,,,0.00,Acu-Link.com,2013-03-03 00:33:00,
2013-03-02 19:49:00,49.8,33.4,29.83,WNW,292,3.2,-999.0,53,-99.99,,,0.00,Acu-Link.com,2013-03-03 00:49:00,
2013-03-02 20:04:00,49.3,33.8,29.84,WSW,247,1.7,-999.0,55,-99.99,,,0.00,Acu-Link.com,2013-03-03 01:04:00,
2013-03-02 20:19:00,48.7,34.2,29.85,North,0,0.0,-999.0,57,-99.99,,,0.00,Acu-Link.com,2013-03-03 01:19:00,
2013-03-02 20:34:00,48.6,34.5,29.85,WNW,292,4.2,-999.0,58,-99.99,,,0.00,Acu-Link.com,2013-03-03 01:34:00,
2013-03-02 20:50:00,48.4,34.3,29.86,West,270,2.2,-999.0,58,-99.99,,,0.00,Acu-Link.com,2013-03-03 01:50:00,
2013-03-02 21:05:00,47.7,34.9,29.86,SW,225,0.0,-999.0,61,-99.99,,,0.00,Acu-Link.com,2013-03-03 02:05:00,
2013-03-02 21:20:00,47.1,34.8,29.87,West,270,3.2,-999.0,62,-99.99,,,0.00,Acu-Link.com,2013-03-03 02:20:00,
2013-03-02 21:36:00,46.8,34.9,29.87,WSW,247,2.7,-999.0,63,-99.99,,,0.00,Acu-Link.com,2013-03-03 02:36:00,
2013-03-02 21:51:00,46.0,34.9,29.87,WSW,247,0.0,-999.0,65,-99.99,,,0.00,Acu-Link.com,2013-03-03 02:51:00,
2013-03-02 22:06:00,45.5,35.2,29.87,West,270,0.0,-999.0,67,-99.99,,,0.00,Acu-Link.com,2013-03-03 03:06:00,
2013-03-02 22:22:00,44.4,34.9,29.86,SW,225,0.0,-999.0,69,-99.99,,,0.00,Acu-Link.com,2013-03-03 03:22:00,
2013-03-02 22:37:00,43.0,34.9,29.87,WSW,247,0.0,-999.0,73,-99.99,,,0.00,Acu-Link.com,2013-03-03 03:37:00,
2013-03-02 22:52:00,41.5,33.8,29.86,SSW,202,0.0,-999.0,74,-99.99,,,0.00,Acu-Link.com,2013-03-03 03:52:00,
2013-03-02 23:07:00,40.6,34.3,29.86,ENE,67,0.0,-999.0,78,-99.99,,,0.00,Acu-Link.com,2013-03-03 04:07:00,
2013-03-02 23:23:00,40.1,35.1,29.85,SE,135,0.0,-999.0,82,-99.99,,,0.00,Acu-Link.com,2013-03-03 04:23:00,
2013-03-02 23:38:00,40.5,36.1,29.85,West,270,0.0,-999.0,84,-99.99,,,0.00,Acu-Link.com,2013-03-03 04:38:00,
2013-03-02 23:53:00,40.6,35.8,29.85,SSE,157,0.0,-999.0,83,-99.99,,,0.00,Acu-Link.com,2013-03-03 04:53:00,